Weather History for Fremont, NE

Change the Weather History Date:

Saturday, November 26, 2011

  Actual Average Record
Temperature  
Mean Temperature 42 °F -  
Max Temperature 46 °F 43 °F 70 °F (1960)
Min Temperature 37 °F 25 °F 0 °F (1993)
Degree Days  
Heating Degree Days 24    
Moisture  
Dew Point 29 °F    
Average Humidity 63    
Maximum Humidity 87    
Minimum Humidity 42    
Precipitation  
Precipitation 0.00 in - - ()
Sea Level Pressure  
Sea Level Pressure 30.02 in    
Wind  
Wind Speed 19 mph (NW)    
Max Wind Speed 34 mph    
Max Gust Speed 45 mph    
Visibility 10 miles    
Events      
Averages and records for this station are not official NWS values.
T = Trace of Precipitation, MM = Missing Value Source: NWS Daily Summary

Daily Weather History Graph

Daily Weather History Graph

Search for Another Location

Airport:

Trip Planner

Search our weather history database for the weather conditions in past years. The results will help you decide how hot, cold, wet, or windy it might be!

Date:

Astronomy

Nov. 26, 2011 Rise Set
Actual Time 7:27 AM CST 4:59 PM CST
Civil Twilight 6:56 AM CST 5:29 PM CST
Nautical Twilight 6:22 AM CST 6:03 PM CST
Astronomical Twilight 5:49 AM CST 6:36 PM CST
Moon 9:00 AM CST (11/26) 6:30 PM CST (11/26)
Length of Visible Light 10h 32m
Length of Day
9h 31m
Waxing Crescent, 3% of the Moon is Illuminated
Nov 26
Waxing Crescent
Dec 2
First Quarter
Dec 10
Full
Dec 17
Last Quarter
Dec 24
New

Hourly Weather History & Observations

Time (CST) Temp. Windchill Dew Point Humidity Pressure Visibility Wind Dir Wind Speed Gust Speed Precip Events Conditions
12:35 AM 46.4 °F 43.5 °F 42.8 °F 87% 29.72 in 10.0 mi WSW 5.8 mph - N/A   Scattered Clouds
12:55 AM 46.4 °F 42.4 °F 42.8 °F 87% 29.73 in 10.0 mi West 8.1 mph - N/A   Clear
1:15 AM 46.4 °F 40.7 °F 41.0 °F 81% 29.74 in 10.0 mi NW 12.7 mph - N/A   Clear
1:35 AM 44.6 °F 36.4 °F 35.6 °F 71% 29.74 in 10.0 mi NW 20.7 mph 24.2 mph N/A   Clear
1:55 AM 42.8 °F 36.6 °F 33.8 °F 70% 29.75 in 10.0 mi NW 11.5 mph - N/A   Clear
2:15 AM 42.8 °F 35.4 °F 33.8 °F 70% 29.77 in 10.0 mi NW 15.0 mph 19.6 mph N/A   Clear
2:35 AM 42.8 °F 37.0 °F 33.8 °F 70% 29.78 in 10.0 mi NW 10.4 mph - N/A   Clear
2:55 AM 41.0 °F 33.9 °F 33.8 °F 76% 29.80 in 10.0 mi NW 12.7 mph - N/A   Clear
3:15 AM 41.0 °F 32.8 °F 33.8 °F 76% 29.81 in 10.0 mi NW 16.1 mph - N/A   Clear
3:35 AM 41.0 °F 31.1 °F 32.0 °F 70% 29.82 in 10.0 mi NW 23.0 mph 28.8 mph N/A   Clear
3:55 AM 41.0 °F 31.1 °F 32.0 °F 70% 29.84 in 10.0 mi NW 23.0 mph 29.9 mph N/A   Mostly Cloudy
4:15 AM 41.0 °F 32.2 °F 32.0 °F 70% 29.85 in 10.0 mi NNW 18.4 mph - N/A   Overcast
4:35 AM 39.2 °F 29.6 °F 32.0 °F 75% 29.87 in 10.0 mi NNW 19.6 mph 27.6 mph N/A   Overcast
4:55 AM 37.4 °F 27.5 °F 32.0 °F 81% 29.88 in 10.0 mi NW 18.4 mph 24.2 mph N/A   Overcast
5:15 AM 37.4 °F 27.2 °F 32.0 °F 81% 29.91 in 10.0 mi NW 19.6 mph 27.6 mph N/A   Overcast
5:35 AM 37.4 °F 27.2 °F 32.0 °F 81% 29.91 in 10.0 mi NW 19.6 mph 27.6 mph N/A   Overcast
5:55 AM 37.4 °F 27.8 °F 32.0 °F 81% 29.92 in 10.0 mi NNW 17.3 mph 27.6 mph N/A   Overcast
6:15 AM 37.4 °F 28.5 °F 32.0 °F 81% 29.93 in 10.0 mi NNW 15.0 mph 29.9 mph N/A   Overcast
6:35 AM 37.4 °F 28.2 °F 32.0 °F 81% 29.94 in 10.0 mi NNW 16.1 mph 23.0 mph N/A   Overcast
6:55 AM 39.2 °F 30.2 °F 32.0 °F 75% 29.95 in 10.0 mi NW 17.3 mph 26.5 mph N/A   Overcast
7:15 AM 39.2 °F 29.0 °F 32.0 °F 75% 29.96 in 10.0 mi NW 21.9 mph - N/A   Overcast
7:35 AM 39.2 °F 28.3 °F 32.0 °F 75% 29.98 in 10.0 mi NW 25.3 mph 36.8 mph N/A   Overcast
7:55 AM 39.2 °F 29.0 °F 32.0 °F 75% 29.99 in 10.0 mi NNW 21.9 mph 29.9 mph N/A   Overcast
8:15 AM 39.2 °F 30.2 °F 32.0 °F 75% 30.00 in 10.0 mi NNW 17.3 mph 25.3 mph N/A   Overcast
8:35 AM 39.2 °F 29.0 °F 32.0 °F 75% 30.02 in 10.0 mi NNW 21.9 mph 31.1 mph N/A   Overcast
8:55 AM 39.2 °F 29.6 °F 32.0 °F 75% 30.02 in 10.0 mi NNW 19.6 mph 29.9 mph N/A   Overcast
9:15 AM 41.0 °F 32.5 °F 32.0 °F 70% 30.03 in 10.0 mi NW 17.3 mph 26.5 mph N/A   Overcast
9:35 AM 41.0 °F 31.4 °F 32.0 °F 70% 30.03 in 7.0 mi NW 21.9 mph 28.8 mph N/A   Overcast
10:15 AM 42.8 °F 32.7 °F 32.0 °F 66% 30.04 in 10.0 mi NW 27.6 mph 34.5 mph N/A   Overcast
10:35 AM 44.6 °F 34.4 °F 32.0 °F 61% 30.06 in 10.0 mi NW 32.2 mph 43.7 mph N/A   Overcast
10:55 AM 44.6 °F 35.5 °F 32.0 °F 61% 30.06 in 10.0 mi NNW 25.3 mph 40.3 mph N/A   Mostly Cloudy
11:15 AM 44.6 °F 34.4 °F 30.2 °F 57% 30.07 in 10.0 mi NW 32.2 mph 39.1 mph N/A   Mostly Cloudy
11:35 AM 44.6 °F 34.4 °F 30.2 °F 57% 30.07 in 10.0 mi NW 32.2 mph 38.0 mph N/A   Overcast
11:55 AM 42.8 °F 32.3 °F 30.2 °F 61% 30.08 in 10.0 mi NW 29.9 mph 36.8 mph N/A   Overcast
12:15 PM 44.6 °F 34.6 °F 30.2 °F 57% 30.08 in 10.0 mi NW 31.1 mph 38.0 mph N/A   Mostly Cloudy
12:35 PM 42.8 °F 32.1 °F 30.2 °F 61% 30.08 in 10.0 mi NW 31.1 mph 35.7 mph N/A   Mostly Cloudy
12:55 PM 44.6 °F 34.2 °F 28.4 °F 53% 30.08 in 10.0 mi NW 33.4 mph 40.3 mph N/A   Scattered Clouds
1:15 PM 44.6 °F 34.1 °F 28.4 °F 53% 30.08 in 10.0 mi NW 34.5 mph 41.4 mph N/A   Scattered Clouds
1:55 PM 44.6 °F 35.1 °F 26.6 °F 49% 30.08 in 10.0 mi NW 27.6 mph 42.6 mph N/A   Scattered Clouds
2:15 PM 44.6 °F 34.2 °F 26.6 °F 49% 30.08 in 10.0 mi NNW 33.4 mph 43.7 mph N/A   Clear
2:35 PM 44.6 °F 34.1 °F 26.6 °F 49% 30.09 in 10.0 mi NW 34.5 mph 44.9 mph N/A   Clear
2:55 PM 42.8 °F 32.3 °F 24.8 °F 49% 30.11 in 10.0 mi NNW 29.9 mph 39.1 mph N/A   Clear
3:15 PM 44.6 °F 34.4 °F 24.8 °F 46% 30.11 in 10.0 mi NW 32.2 mph 39.1 mph N/A   Clear
3:35 PM 42.8 °F 33.5 °F 23.0 °F 46% 30.13 in 10.0 mi NW 23.0 mph 39.1 mph N/A   Clear
3:55 PM 42.8 °F 33.1 °F 23.0 °F 46% 30.14 in 10.0 mi NNW 25.3 mph 36.8 mph N/A   Clear
4:15 PM 42.8 °F 32.7 °F 21.2 °F 42% 30.15 in 10.0 mi NW 27.6 mph 38.0 mph N/A   Clear
4:35 PM 41.0 °F 31.9 °F 21.2 °F 45% 30.16 in 10.0 mi NW 19.6 mph 33.4 mph N/A   Clear
4:55 PM 41.0 °F 31.4 °F 21.2 °F 45% 30.18 in 10.0 mi NW 21.9 mph 27.6 mph N/A   Clear
5:15 PM 39.2 °F 27.8 °F 21.2 °F 49% 30.19 in 10.0 mi NW 27.6 mph 34.5 mph N/A   Clear
5:35 PM 39.2 °F 29.6 °F 21.2 °F 49% 30.19 in 10.0 mi NW 19.6 mph 34.5 mph N/A   Scattered Clouds
5:55 PM 39.2 °F 29.3 °F 21.2 °F 49% 30.20 in 10.0 mi NW 20.7 mph 31.1 mph N/A   Mostly Cloudy
6:15 PM 39.2 °F 29.6 °F 21.2 °F 49% 30.20 in 10.0 mi NNW 19.6 mph 32.2 mph N/A   Overcast
6:35 PM 37.4 °F 26.4 °F 21.2 °F 52% 30.21 in 10.0 mi NNW 23.0 mph 40.3 mph N/A   Mostly Cloudy
6:55 PM 37.4 °F 26.6 °F 21.2 °F 52% 30.22 in 10.0 mi NNW 21.9 mph 29.9 mph N/A   Mostly Cloudy
7:15 PM 37.4 °F 25.9 °F 21.2 °F 52% 30.22 in 10.0 mi NNW 25.3 mph 39.1 mph N/A   Mostly Cloudy
7:35 PM 37.4 °F 26.4 °F 21.2 °F 52% 30.22 in 10.0 mi NNW 23.0 mph 38.0 mph N/A   Overcast
8:15 PM 39.2 °F 29.3 °F 21.2 °F 49% 30.23 in 10.0 mi NNW 20.7 mph 35.7 mph N/A   Overcast
8:35 PM 37.4 °F 27.2 °F 21.2 °F 52% 30.24 in 10.0 mi NNW 19.6 mph 32.2 mph N/A   Overcast
8:55 PM 37.4 °F 28.9 °F 21.2 °F 52% 30.24 in 10.0 mi NNW 13.8 mph 32.2 mph N/A   Overcast
9:15 PM 37.4 °F 25.6 °F 21.2 °F 52% 30.25 in 10.0 mi NNW 26.5 mph 32.2 mph N/A   Overcast
9:35 PM 37.4 °F 26.1 °F 21.2 °F 52% 30.25 in 10.0 mi NNW 24.2 mph 32.2 mph N/A   Overcast
9:55 PM 37.4 °F 25.2 °F 21.2 °F 52% 30.25 in 10.0 mi NW 28.8 mph 35.7 mph N/A   Overcast
10:15 PM 37.4 °F 26.4 °F 21.2 °F 52% 30.25 in 10.0 mi NNW 23.0 mph 36.8 mph N/A   Overcast
10:35 PM 37.4 °F 26.9 °F 21.2 °F 52% 30.25 in 10.0 mi NNW 20.7 mph 26.5 mph N/A   Overcast
10:55 PM 37.4 °F 27.8 °F 21.2 °F 52% 30.25 in 10.0 mi NNW 17.3 mph 26.5 mph N/A   Overcast
11:35 PM 35.6 °F 26.2 °F 21.2 °F 56% 30.25 in 10.0 mi NW 15.0 mph 21.9 mph N/A   Overcast
11:55 PM 35.6 °F 24.8 °F 17.6 °F 48% 30.25 in 10.0 mi NW 19.6 mph 25.3 mph N/A   Overcast